When you browse on this site, cookies collect data to enhance your experience and personalize the content and advertising you see.
Visit our Privacy Policy to learn more. By continuing to use the site, you agree to this use of cookies and data.
  • In Schweiz
  • Länderverzeichnis
  • Für 7 Tage
  • Wassertemperatur
  • Wetterkarte
  • Widgets
  • user-avatar
    Anmelden

    Stündliche Wetter Kozub

    Heute, 22 September, Sonntag

    Zeit Temperatur Niederschläge Wind Luftdruck Luftfeuchtigkeit
    00:00 +12°C° 0 mm 2 m/S 750 mmHg 74%
    01:00 +12°C° 0 mm 2 m/S 750 mmHg 75%
    02:00 +12°C° 0 mm 2 m/S 750 mmHg 74%
    03:00 +10°C° 0 mm 2 m/S 749 mmHg 73%
    04:00 +10°C° 0 mm 2 m/S 749 mmHg 72%
    05:00 +10°C° 0 mm 2 m/S 749 mmHg 70%
    06:00 +12°C° 0 mm 2 m/S 749 mmHg 67%
    07:00 +11°C° 0 mm 3 m/S 749 mmHg 64%
    08:00 +13°C° 0 mm 3 m/S 749 mmHg 58%
    09:00 +16°C° 0 mm 3 m/S 749 mmHg 52%
    10:00 +19°C° 0 mm 4 m/S 748 mmHg 45%
    11:00 +20°C° 0 mm 4 m/S 748 mmHg 43%
    12:00 +21°C° 0 mm 3 m/S 748 mmHg 40%
    13:00 +22°C° 0 mm 3 m/S 747 mmHg 37%
    14:00 +22°C° 0 mm 3 m/S 747 mmHg 39%
    15:00 +21°C° 0 mm 3 m/S 747 mmHg 41%
    16:00 +21°C° 0 mm 3 m/S 746 mmHg 42%
    17:00 +19°C° 0 mm 3 m/S 746 mmHg 46%
    18:00 +18°C° 0 mm 2 m/S 746 mmHg 50%
    19:00 +16°C° 0 mm 2 m/S 746 mmHg 53%
    20:00 +16°C° 0 mm 2 m/S 746 mmHg 54%
    21:00 +15°C° 0 mm 2 m/S 746 mmHg 54%
    22:00 +15°C° 0 mm 2 m/S 746 mmHg 55%
    23:00 +14°C° 0 mm 2 m/S 746 mmHg 57%

    Morgen, 23 September, Montag

    Zeit Temperatur Niederschläge Wind Luftdruck Luftfeuchtigkeit
    00:00 +14°C° 0 mm 2 m/S 746 mmHg 59%
    01:00 +13°C° 0 mm 2 m/S 746 mmHg 61%
    02:00 +13°C° 0 mm 2 m/S 746 mmHg 65%
    03:00 +13°C° 0 mm 2 m/S 745 mmHg 68%
    04:00 +12°C° 0 mm 3 m/S 745 mmHg 72%
    05:00 +12°C° 0 mm 3 m/S 745 mmHg 72%
    06:00 +12°C° 0 mm 3 m/S 745 mmHg 72%
    07:00 +13°C° 0 mm 3 m/S 745 mmHg 72%
    08:00 +16°C° 0 mm 3 m/S 746 mmHg 65%
    09:00 +18°C° 0 mm 4 m/S 746 mmHg 59%
    10:00 +20°C° 0 mm 4 m/S 746 mmHg 52%
    11:00 +21°C° 0 mm 4 m/S 746 mmHg 49%
    12:00 +21°C° 0 mm 4 m/S 746 mmHg 46%
    13:00 +22°C° 0 mm 4 m/S 746 mmHg 43%
    14:00 +22°C° 0 mm 4 m/S 745 mmHg 44%
    15:00 +22°C° 0 mm 4 m/S 745 mmHg 45%
    16:00 +21°C° 0 mm 4 m/S 745 mmHg 45%
    17:00 +20°C° 0 mm 3 m/S 745 mmHg 51%
    18:00 +18°C° 0 mm 3 m/S 746 mmHg 57%
    19:00 +16°C° 0 mm 3 m/S 746 mmHg 63%
    20:00 +16°C° 0 mm 3 m/S 746 mmHg 67%
    21:00 +14°C° 0 mm 3 m/S 746 mmHg 71%
    22:00 +13°C° 0 mm 3 m/S 746 mmHg 76%
    23:00 +13°C° 0 mm 3 m/S 746 mmHg 78%

    übermorgen, 24 September, Dienstag

    Zeit Temperatur Niederschläge Wind Luftdruck Luftfeuchtigkeit
    00:00 +12°C° 0 mm 3 m/S 746 mmHg 81%
    01:00 +12°C° 0 mm 3 m/S 746 mmHg 83%
    02:00 +13°C° 0 mm 2 m/S 746 mmHg 84%
    03:00 +13°C° 0 mm 2 m/S 746 mmHg 85%
    04:00 +13°C° 0 mm 2 m/S 746 mmHg 86%
    05:00 +13°C° 0 mm 2 m/S 745 mmHg 84%
    06:00 +14°C° 0 mm 2 m/S 745 mmHg 82%
    07:00 +14°C° 0 mm 2 m/S 745 mmHg 80%
    08:00 +16°C° 0 mm 2 m/S 745 mmHg 72%
    09:00 +18°C° 0 mm 2 m/S 745 mmHg 65%
    10:00 +20°C° 0 mm 2 m/S 745 mmHg 57%
    11:00 +21°C° 0 mm 2 m/S 745 mmHg 54%
    12:00 +23°C° 0 mm 2 m/S 745 mmHg 51%
    13:00 +23°C° 0 mm 2 m/S 744 mmHg 49%
    14:00 +23°C° 0 mm 2 m/S 744 mmHg 49%
    15:00 +23°C° 0 mm 2 m/S 743 mmHg 50%
    16:00 +23°C° 0 mm 2 m/S 743 mmHg 51%
    17:00 +21°C° 0 mm 2 m/S 743 mmHg 54%
    18:00 +19°C° 0 mm 2 m/S 743 mmHg 58%
    19:00 +18°C° 0 mm 2 m/S 743 mmHg 61%
    20:00 +18°C° 0 mm 2 m/S 743 mmHg 62%
    21:00 +18°C° 0 mm 3 m/S 743 mmHg 62%
    22:00 +18°C° 0 mm 3 m/S 742 mmHg 63%
    23:00 +17°C° 0 mm 3 m/S 742 mmHg 65%

    25 September, Mittwoch

    Zeit Temperatur Niederschläge Wind Luftdruck Luftfeuchtigkeit
    00:00 +17°C° 0 mm 3 m/S 742 mmHg 67%
    01:00 +16°C° 0 mm 3 m/S 741 mmHg 69%
    02:00 +16°C° 0 mm 3 m/S 741 mmHg 71%
    03:00 +16°C° 0 mm 2 m/S 741 mmHg 74%
    04:00 +15°C° 0 mm 2 m/S 741 mmHg 76%
    05:00 +15°C° 0 mm 2 m/S 740 mmHg 77%
    06:00 +16°C° 0 mm 2 m/S 740 mmHg 77%
    07:00 +16°C° 0 mm 2 m/S 740 mmHg 78%
    08:00 +17°C° 0 mm 2 m/S 740 mmHg 73%
    09:00 +18°C° 0 mm 2 m/S 740 mmHg 69%
    10:00 +19°C° 0 mm 3 m/S 740 mmHg 65%
    11:00 +19°C° 0.2 mm 3 m/S 740 mmHg 63%
    12:00 +19°C° 0.2 mm 4 m/S 740 mmHg 61%
    13:00 +20°C° 0.2 mm 4 m/S 739 mmHg 59%
    14:00 +19°C° 0.2 mm 4 m/S 739 mmHg 62%
    15:00 +18°C° 0.2 mm 4 m/S 739 mmHg 65%
    16:00 +18°C° 0.2 mm 4 m/S 739 mmHg 67%
    17:00 +17°C° 0.1 mm 3 m/S 739 mmHg 71%
    18:00 +16°C° 0.1 mm 3 m/S 739 mmHg 74%
    19:00 +16°C° 0.1 mm 3 m/S 740 mmHg 78%
    20:00 +14°C° 0 mm 3 m/S 740 mmHg 81%
    21:00 +14°C° 0 mm 3 m/S 740 mmHg 85%
    22:00 +13°C° 0 mm 4 m/S 740 mmHg 88%
    23:00 +13°C° 0 mm 4 m/S 741 mmHg 87%

    26 September, Donnerstag

    Zeit Temperatur Niederschläge Wind Luftdruck Luftfeuchtigkeit
    00:00 +13°C° 0 mm 3 m/S 741 mmHg 86%
    01:00 +13°C° 0 mm 3 m/S 741 mmHg 85%
    02:00 +13°C° 0 mm 4 m/S 741 mmHg 84%
    03:00 +13°C° 0 mm 4 m/S 741 mmHg 84%
    04:00 +13°C° 0 mm 4 m/S 741 mmHg 83%
    05:00 +13°C° 0.1 mm 4 m/S 742 mmHg 85%
    06:00 +13°C° 0.1 mm 5 m/S 742 mmHg 87%
    07:00 +13°C° 0.1 mm 5 m/S 742 mmHg 88%
    08:00 +14°C° 0 mm 5 m/S 743 mmHg 86%
    09:00 +14°C° 0 mm 5 m/S 743 mmHg 83%
    10:00 +15°C° 0 mm 5 m/S 743 mmHg 80%
    11:00 +15°C° 0.1 mm 5 m/S 743 mmHg 76%
    12:00 +17°C° 0.1 mm 4 m/S 743 mmHg 73%
    13:00 +18°C° 0.1 mm 4 m/S 743 mmHg 69%
    14:00 +18°C° 0.1 mm 4 m/S 743 mmHg 68%
    15:00 +18°C° 0.1 mm 3 m/S 743 mmHg 67%
    16:00 +18°C° 0.1 mm 3 m/S 743 mmHg 67%
    17:00 +17°C° 0 mm 3 m/S 743 mmHg 71%
    18:00 +16°C° 0 mm 2 m/S 743 mmHg 75%
    19:00 +15°C° 0 mm 2 m/S 744 mmHg 80%
    20:00 +15°C° 0 mm 2 m/S 744 mmHg 82%
    21:00 +14°C° 0 mm 2 m/S 744 mmHg 85%
    22:00 +13°C° 0 mm 3 m/S 744 mmHg 87%
    23:00 +14°C° 0 mm 2 m/S 744 mmHg 88%

    27 September, Freitag

    Zeit Temperatur Niederschläge Wind Luftdruck Luftfeuchtigkeit
    00:00 +14°C° 0 mm 2 m/S 744 mmHg 89%
    01:00 +14°C° 0 mm 2 m/S 744 mmHg 90%
    02:00 +14°C° 0 mm 2 m/S 744 mmHg 90%
    03:00 +14°C° 0 mm 2 m/S 744 mmHg 91%
    04:00 +14°C° 0 mm 2 m/S 744 mmHg 92%
    05:00 +14°C° 0.2 mm 2 m/S 744 mmHg 92%
    06:00 +14°C° 0.2 mm 2 m/S 745 mmHg 92%
    07:00 +14°C° 0.2 mm 2 m/S 745 mmHg 92%
    08:00 +15°C° 0 mm 2 m/S 745 mmHg 87%
    09:00 +16°C° 0 mm 2 m/S 745 mmHg 82%
    10:00 +17°C° 0 mm 2 m/S 745 mmHg 78%
    11:00 +16°C° 0.2 mm 2 m/S 745 mmHg 81%
    12:00 +16°C° 0.2 mm 3 m/S 745 mmHg 85%
    13:00 +14°C° 0.2 mm 3 m/S 745 mmHg 89%
    14:00 +14°C° 0.2 mm 3 m/S 745 mmHg 89%
    15:00 +14°C° 0.2 mm 3 m/S 744 mmHg 89%
    16:00 +14°C° 0.2 mm 3 m/S 744 mmHg 90%
    17:00 +14°C° 0 mm 3 m/S 744 mmHg 90%
    18:00 +14°C° 0 mm 3 m/S 745 mmHg 91%
    19:00 +14°C° 0 mm 3 m/S 745 mmHg 91%
    20:00 +14°C° 0 mm 3 m/S 745 mmHg 92%
    21:00 +14°C° 0 mm 2 m/S 745 mmHg 93%
    22:00 +14°C° 0 mm 2 m/S 745 mmHg 93%
    23:00 +13°C° 0 mm 3 m/S 745 mmHg 93%
    Mehr zeigen